IV3NGF Weather Reports


time (UTC)temp
C
wind
direction
speed
KPH
gust
KPH
rain 1hr
cm
rain 24hr
cm
rain mn
cm
humidity
%
barometer
mb
20260507224216 12 0.0 0.0 0.00 0.00 0.00 88 1016.1
20260507223216 12 0.0 0.0 0.00 0.00 0.00 89 1016.1
20260507222238 12 0.0 0.0 0.00 0.00 0.00 89 1016.2
20260507221217 12 0.0 0.0 0.00 0.00 0.00 89 1016.1
20260507220254 12 0.0 0.0 0.00 0.00 0.00 89 1016.1
20260507215219 12 0.0 0.0 0.00 0.00 0.00 89 1016.2
20260507214217 12 0.0 0.0 0.00 0.00 0.00 88 1015.9
20260507213255 12 0.0 0.0 0.00 0.00 0.00 87 1015.9
20260507212255 12 0.0 0.0 0.00 0.00 0.00 88 1015.9
20260507211217 12 0.0 0.0 0.00 0.00 0.00 88 1015.7
20260507210217 12 0.0 0.0 0.00 0.00 0.00 87 1015.8
20260507205217 12 0.0 0.0 0.00 0.00 0.00 87 1015.7
20260507204219 13 0.0 0.0 0.00 0.00 0.00 87 1015.6
20260507203217 13 0.0 0.0 0.00 0.00 0.00 86 1015.6
20260507202219 13 0.0 0.0 0.00 0.00 0.00 86 1015.4
20260507201219 13 0.0 0.0 0.00 0.00 0.00 85 1015.2
20260507200250 13 0.0 0.0 0.00 0.00 0.00 84 1015.1
20260507195217 13 0.0 0.0 0.00 0.00 0.00 84 1014.9
20260507194219 13 0.0 0.0 0.00 0.00 0.00 84 1014.9
20260507193255 14 0.0 0.0 0.00 0.00 0.00 83 1014.8
20260507192219 14 0.0 0.0 0.00 0.00 0.00 81 1014.6
20260507191315 15 0.0 0.0 0.00 0.00 0.00 80 1014.5
20260507190217 15 0.0 0.0 0.00 0.00 0.00 79 1014.3
20260507185250 15 0.0 0.0 0.00 0.00 0.00 78 1014.2
20260507184217 16 0.0 0.0 0.00 0.00 0.00 76 1014.1
20260507183219 17 0.0 0.0 0.00 0.00 0.00 73 1013.9
20260507182255 17 0.0 0.0 0.00 0.00 0.00 71 1013.8
20260507181219 17 0.0 0.0 0.00 0.00 0.00 70 1013.8
20260507180319 18 0.0 0.0 0.00 0.00 0.00 69 1013.7
20260507175217 18 0.0 0.0 0.00 0.00 0.00 68 1013.6
20260507174237 19 0.0 0.0 0.00 0.00 0.00 66 1013.6
20260507173218 19 0.0 0.0 0.00 0.00 0.00 65 1013.6
20260507172335 19 0.0 0.0 0.00 0.00 0.00 62 1013.6
20260507171219 19 0.0 0.0 0.00 0.00 0.00 60 1013.6
20260507170219 19 0.0 0.0 0.00 0.03 0.00 60 1013.6
20260507165255 19 0.0 0.0 0.00 0.03 0.00 62 1013.5
20260507164237 19 0.0 0.0 0.00 0.25 0.00 63 1013.4
20260507163237 19 0.0 0.0 0.00 0.28 0.00 63 1013.6
20260507162217 19 0.0 0.0 0.00 0.28 0.00 63 1013.6
20260507161219 19 0.0 0.0 0.00 0.28 0.00 61 1013.5
20260507160255 19 0.0 0.0 0.00 0.28 0.00 60 1013.3
20260507155251 19 0.0 0.0 0.00 0.28 0.00 59 1013.6
20260507154219 20 203 4.8 11.3 0.00 0.28 0.00 57 1013.5
20260507153316 20 0.0 0.0 0.00 0.28 0.00 58 1013.4
20260507152217 20 203 4.8 11.3 0.00 0.28 0.00 55 1013.4
20260507151217 20 203 9.7 12.9 0.00 0.28 0.00 53 1013.0
20260507150316 21 0.0 3.2 0.00 0.28 0.00 54 1012.7
20260507145239 21 0.0 3.2 0.00 0.28 0.00 52 1012.4
20260507144219 21 180 1.6 6.4 0.00 0.28 0.00 62 1012.4
20260507143259 21 225 6.4 12.9 0.00 0.28 0.00 63 1012.2
20260507142257 21 203 8.0 16.1 0.00 0.28 0.00 60 1012.3
20260507141217 21 203 8.0 14.5 0.00 0.28 0.00 64 1012.3
20260507140217 21 203 8.0 14.5 0.00 0.28 0.00 65 1012.3
20260507135217 21 167 4.8 0.0 0.00 0.30 0.00 66 1012.4
20260507134217 21 180 6.4 11.3 0.00 0.30 0.00 63 1012.4
20260507133240 21 203 4.8 11.3 0.00 0.30 0.00 62 1012.5
20260507132244 21 180 1.6 8.0 0.00 0.30 0.00 61 1012.5
20260507131255 21 0.0 4.8 0.00 0.30 0.00 66 1012.5
20260507130217 21 0.0 3.2 0.00 0.30 0.00 66 1012.5
20260507125218 21 158 6.4 12.9 0.00 0.30 0.00 66 1012.7
20260507124219 21 180 6.4 12.9 0.00 0.30 0.00 67 1012.7
20260507123217 21 158 1.6 11.3 0.00 0.30 0.00 69 1012.7
20260507122219 21 0.0 0.0 0.00 0.30 0.00 68 1012.7
20260507121219 21 158 1.6 9.7 0.00 0.30 0.00 69 1012.7
20260507120256 21 203 1.6 4.8 0.00 0.30 0.00 70 1012.8
20260507115218 21 158 9.7 14.5 0.00 0.30 0.00 68 1012.9
20260507114309 21 203 3.2 12.9 0.00 0.33 0.00 70 1012.8
20260507113219 21 0.0 0.0 0.00 0.33 0.00 70 1012.9
20260507112217 21 180 1.6 6.4 0.00 0.33 0.00 69 1013.1
20260507111256 21 180 4.8 8.0 0.00 0.33 0.00 68 1013.1
20260507110220 21 158 3.2 6.4 0.00 0.33 0.00 68 1013.1
20260507105219 21 158 4.8 9.7 0.00 0.33 0.00 68 1013.2
20260507104218 21 158 8.0 14.5 0.00 0.36 0.00 66 1013.3
20260507103219 21 158 3.2 12.9 0.00 0.36 0.00 65 1013.4
20260507102256 21 180 8.0 12.9 0.00 0.36 0.00 66 1013.4
20260507101218 20 180 4.8 12.9 0.00 0.36 0.00 68 1013.4
20260507100256 20 203 9.7 14.5 0.00 0.36 0.00 65 1013.4
20260507095217 20 158 8.0 16.1 0.00 0.36 0.00 66 1013.3
20260507094256 20 180 14.5 22.5 0.00 0.38 0.00 66 1013.3
20260507093217 20 180 4.8 14.5 0.00 0.38 0.00 68 1013.2
20260507092220 20 180 8.0 17.7 0.00 0.38 0.00 66 1013.2
20260507091220 20 203 3.2 12.9 0.00 0.38 0.00 67 1013.1
20260507090219 20 203 11.3 19.3 0.00 0.38 0.00 70 1013.1
20260507085256 20 158 9.7 16.1 0.00 0.38 0.00 69 1013.1
20260507084217 20 0.0 1.6 0.00 0.41 0.00 69 1013.0
20260507083316 20 180 1.6 9.7 0.00 0.43 0.00 72 1013.0
20260507082217 20 158 9.7 17.7 0.00 0.43 0.00 75 1013.0
20260507081220 20 158 1.6 11.3 0.00 0.48 0.00 74 1012.9
20260507080220 19 158 8.0 19.3 0.00 0.51 0.00 76 1012.8
20260507075217 18 158 3.2 11.3 0.00 0.56 0.00 76 1012.8
20260507074218 19 158 8.0 14.5 0.00 0.61 0.00 76 1012.8
20260507073218 18 0.0 0.0 0.00 0.64 0.00 80 1012.8
20260507072218 18 158 1.6 9.7 0.00 0.66 0.00 78 1012.7
20260507071218 19 156 11.3 0.0 0.00 0.69 0.00 77 1012.6
20260507070216 19 135 6.4 16.1 0.00 0.71 0.00 77 1012.5
20260507065215 18 158 9.7 12.9 0.00 0.74 0.00 80 1012.5
20260507064218 18 0.0 0.0 0.00 0.76 0.00 81 1012.5
20260507063215 18 0.0 0.0 0.00 0.79 0.00 83 1012.4
20260507062238 17 0.0 0.0 0.00 0.79 0.00 86 1012.2
20260507061249 17 0.0 0.0 0.00 0.81 0.00 89 1012.2
20260507060217 16 0.0 0.0 0.00 0.86 0.00 90 1012.3
20260507055236 16 0.0 0.0 0.00 1.07 0.00 91 1012.3
20260507054215 16 0.0 0.0 0.00 1.32 0.00 92 1012.1
20260507053254 15 0.0 0.0 0.00 1.55 0.00 93 1012.0
20260507052216 15 0.0 0.0 0.00 1.55 0.00 93 1012.0
20260507051218 15 0.0 0.0 0.00 1.55 0.00 93 1011.8
20260507050254 15 0.0 0.0 0.00 1.55 0.00 93 1011.6
20260507045218 15 0.0 0.0 0.00 1.55 0.00 93 1011.5
20260507044216 15 0.0 0.0 0.00 1.55 0.00 93 1011.5
20260507043216 15 0.0 0.0 0.00 1.55 0.00 93 1011.5
20260507042254 15 0.0 0.0 0.00 1.55 0.00 93 1011.5
20260507041216 15 0.0 0.0 0.00 1.55 0.00 93 1011.4
20260507040218 14 0.0 0.0 0.00 1.55 0.00 92 1011.3
20260507035216 14 0.0 0.0 0.00 1.55 0.00 92 1011.2
20260507034218 15 0.0 0.0 0.00 1.55 0.00 92 1011.2
20260507033216 15 0.0 0.0 0.00 1.55 0.00 92 1011.3
20260507032236 15 0.0 0.0 0.00 1.55 0.00 92 1011.2
20260507031218 15 0.0 0.0 0.00 1.55 0.00 92 1011.2
20260507030254 15 0.0 0.0 0.00 1.55 0.00 92 1011.3
20260507025218 15 0.0 0.0 0.00 1.55 0.00 91 1011.2
20260507024216 15 0.0 0.0 0.00 1.55 0.00 91 1011.2
20260507023218 15 0.0 0.0 0.00 1.55 0.00 91 1011.2
20260507022216 15 0.0 0.0 0.00 1.55 0.00 91 1011.3
20260507021216 15 0.0 0.0 0.00 1.55 0.00 91 1011.1
20260507020309 15 0.0 0.0 0.00 1.55 0.00 91 1011.2
20260507015238 15 0.0 0.0 0.00 1.55 0.00 91 1011.2
20260507014223 15 0.0 0.0 0.00 1.55 0.00 91 1011.2
20260507013216 15 0.0 0.0 0.00 1.55 0.00 90 1011.3
20260507012218 15 0.0 0.0 0.00 1.55 0.00 90 1011.2
20260507010216 15 0.0 0.0 0.00 1.55 0.00 90 1011.3
20260507005255 15 0.0 0.0 0.00 1.55 0.00 90 1011.2
20260507004218 15 0.0 0.0 0.00 1.55 0.00 90 1011.2
20260507003254 15 0.0 0.0 0.00 1.55 0.00 89 1011.3
20260507002218 15 0.0 0.0 0.00 1.55 0.00 89 1011.2
20260507001218 15 0.0 0.0 0.00 1.55 0.00 89 1011.2
20260507000216 15 0.0 0.0 0.00 1.55 0.00 89 1011.3
20260506235216 15 0.0 0.0 0.00 1.55 0.00 89 1011.3
20260506234218 15 0.0 0.0 0.00 1.55 0.00 88 1011.4
20260506233218 15 0.0 0.0 0.00 1.55 0.00 88 1011.4
20260506232218 15 0.0 0.0 0.00 1.55 0.00 88 1011.5
20260506231218 15 0.0 0.0 0.00 1.55 0.00 88 1011.7
20260506230218 15 0.0 0.0 0.00 1.55 0.00 88 1011.7
20260506225237 15 0.0 11.3 0.00 1.55 0.00 87 1011.6